Dayton Wright, OH

12:03 PM EDT on October 17, 2017 (GMT -0400)
Dayton-Wright Brothers

Weather History for KMGY - April, 2014

Change the Weather History Date:

Thursday, April 3, 2014

  Actual Average (KFFO) Record (KFFO)
Temperature  
Mean Temperature 56 °F -  
Max Temperature 63 °F 58 °F 79 °F (2007)
Min Temperature 48 °F 36 °F 22 °F (2013)
Degree Days  
Heating Degree Days 10    
Growing Degree Days 6 (Base 50)    
Moisture  
Dew Point 52 °F    
Average Humidity 93    
Maximum Humidity 100    
Minimum Humidity 84    
Precipitation  
Precipitation 1.24 in - - ()
Sea Level Pressure  
Sea Level Pressure 29.84 in    
Wind  
Wind Speed 10 mph (SE)    
Max Wind Speed 16 mph    
Max Gust Speed 22 mph    
Visibility 6 miles    
Events Fog , Rain , Thunderstorm    
Averages and records for this station are not official NWS values.
T = Trace of Precipitation, MM = Missing Value Source: NWS Daily Summary

Daily Weather History Graph

Daily Weather History Graph

Search for Another Location

Airport or City:

Trip Planner

Search our weather history database for the weather conditions in past years. The results will help you decide how hot, cold, wet, or windy it might be!

Date:

Astronomy

Apr. 03, 2014 Rise Set
Actual Time 7:17 AM EDT 8:02 PM EDT
Civil Twilight 6:50 AM EDT 8:30 PM EDT
Nautical Twilight 6:18 AM EDT 9:02 PM EDT
Astronomical Twilight 5:45 AM EDT 9:35 PM EDT
Moon 9:47 AM EDT (4/3) No Moon Set
Length of Visible Light 13h 39m
Length of Day
12h 44m
Waxing Crescent, 17% of the Moon is Illuminated
Apr 3
Waxing Crescent
Apr 7
First Quarter
Apr 15
Full
Apr 22
Last Quarter
Apr 29
New

Hourly Weather History & Observations

Time (EDT) Temp. Dew Point Humidity Pressure Visibility Wind Dir Wind Speed Gust Speed Precip Events Conditions
12:53 AM 51.1 °F 46.9 °F 86% 30.03 in 10.0 mi East 8.1 mph - 0.00 in   Overcast
1:53 AM 51.1 °F 46.9 °F 86% 30.03 in 10.0 mi East 6.9 mph - 0.00 in   Overcast
2:53 AM 52.0 °F 48.9 °F 89% 30.00 in 10.0 mi East 8.1 mph - N/A   Mostly Cloudy
3:53 AM 52.0 °F 48.9 °F 89% 30.00 in 10.0 mi ENE 8.1 mph - N/A   Overcast
4:34 AM 52.0 °F 50.0 °F 93% 29.98 in 6.0 mi East 8.1 mph - 0.04 in Rain Rain
4:53 AM 52.0 °F 50.0 °F 93% 29.96 in 8.0 mi East 11.5 mph - 0.06 in Rain Light Rain
5:53 AM 51.1 °F 50.0 °F 96% 29.96 in 9.0 mi ENE 10.4 mph - 0.04 in   Overcast
6:53 AM 50.0 °F 48.0 °F 93% 29.95 in 9.0 mi East 12.7 mph - N/A   Overcast
7:34 AM 48.9 °F 48.0 °F 97% 29.96 in 2.5 mi East 10.4 mph - 0.12 in Rain Heavy Rain
7:39 AM 48.9 °F 48.0 °F 97% 29.95 in 3.0 mi East 10.4 mph - 0.13 in Rain Rain
7:53 AM 48.9 °F 48.0 °F 97% 29.95 in 3.0 mi East 11.5 mph - 0.16 in Rain Light Rain
8:22 AM 48.9 °F 48.0 °F 97% 29.95 in 4.0 mi East 10.4 mph - 0.00 in Rain Light Rain
8:53 AM 50.0 °F 48.0 °F 93% 29.96 in 4.0 mi ESE 9.2 mph - 0.01 in Rain Light Rain
9:02 AM 50.0 °F 48.0 °F 93% 29.96 in 4.0 mi ESE 10.4 mph - 0.01 in Rain , Thunderstorm Light Thunderstorms and Rain
9:17 AM 50.0 °F 48.0 °F 93% 29.93 in 3.0 mi East 12.7 mph - 0.04 in Rain Rain
9:31 AM 50.0 °F 48.0 °F 93% 29.89 in 2.5 mi East 12.7 mph - 0.08 in Rain Heavy Rain
9:41 AM 50.0 °F 48.9 °F 96% 29.91 in 2.5 mi ENE 11.5 mph - 0.12 in Rain Rain
9:46 AM 50.0 °F 48.9 °F 96% 29.91 in 3.0 mi East 10.4 mph 19.6 mph 0.13 in Rain Rain
9:53 AM 50.0 °F 48.9 °F 96% 29.94 in 3.0 mi ESE 6.9 mph - 0.15 in Rain Rain
10:10 AM 50.0 °F 48.9 °F 96% 29.93 in 2.0 mi East 8.1 mph - 0.05 in Rain Heavy Rain
10:48 AM 50.0 °F 48.2 °F 94% 29.86 in 3.0 mi East 12.7 mph - 0.19 in Rain Light Rain
10:49 AM 50.0 °F 48.9 °F 96% 29.87 in 3.0 mi East 12.7 mph - 0.19 in Rain Light Rain
11:53 AM 52.0 °F 51.1 °F 97% 29.84 in 9.0 mi ESE 11.5 mph 21.9 mph 0.01 in   Overcast
12:18 PM 53.1 °F 51.1 °F 93% 29.82 in 9.0 mi ESE 15.0 mph - 0.01 in Rain Light Rain
12:29 PM 53.1 °F 51.1 °F 93% 29.81 in 1.8 mi ESE 11.5 mph - 0.02 in Rain , Thunderstorm Rain
12:40 PM 53.1 °F 52.0 °F 96% 29.83 in 2.0 mi SSE 9.2 mph - 0.05 in Rain , Thunderstorm Thunderstorms and Rain
12:50 PM 53.6 °F 51.8 °F 94% 29.81 in 2.5 mi ESE 11.5 mph 20.7 mph 0.08 in Rain , Thunderstorm Rain
12:53 PM 53.1 °F 52.0 °F 96% 29.82 in 3.0 mi SE 10.4 mph - 0.09 in Rain , Thunderstorm Rain
1:09 PM 53.1 °F 52.0 °F 96% 29.78 in 2.0 mi East 11.5 mph - 0.06 in Rain , Thunderstorm Rain
1:22 PM 54.0 °F 53.1 °F 97% 29.84 in 0.8 mi Calm Calm - 0.17 in Rain , Thunderstorm Heavy Rain
1:30 PM 53.1 °F 53.1 °F 100% 29.82 in 0.5 mi ESE 3.5 mph - 0.34 in Fog , Rain , Thunderstorm Heavy Rain
1:35 PM 54.0 °F 53.1 °F 97% 29.81 in 0.8 mi East 5.8 mph - 0.39 in Rain , Thunderstorm Heavy Thunderstorms and Rain
1:41 PM 54.0 °F 53.1 °F 97% 29.80 in 1.2 mi East 9.2 mph - 0.42 in Rain , Thunderstorm Heavy Thunderstorms and Rain
1:46 PM 54.0 °F 53.1 °F 97% 29.80 in 2.0 mi ESE 10.4 mph - 0.44 in Rain , Thunderstorm Thunderstorms and Rain
1:53 PM 54.0 °F 53.1 °F 97% 29.79 in 2.0 mi ESE 10.4 mph - 0.47 in Rain , Thunderstorm Heavy Rain
2:05 PM 54.0 °F 53.1 °F 97% 29.79 in 3.0 mi SE 8.1 mph - 0.03 in Rain Rain
2:27 PM 55.0 °F 54.0 °F 96% 29.77 in 4.0 mi SSE 12.7 mph - 0.05 in Rain Light Rain
2:35 PM 55.0 °F 54.0 °F 96% 29.77 in 6.0 mi SSE 10.4 mph - 0.06 in Rain Light Rain
2:45 PM 55.9 °F 55.0 °F 97% 29.76 in 7.0 mi SSE 12.7 mph 18.4 mph 0.06 in Rain Light Rain
2:53 PM 55.9 °F 55.0 °F 97% 29.75 in 9.0 mi SSE 15.0 mph - 0.06 in   Overcast
3:14 PM 57.0 °F 55.0 °F 93% 29.71 in 10.0 mi SSE 16.1 mph - N/A   Mostly Cloudy
3:53 PM 57.9 °F 57.0 °F 97% 29.71 in 10.0 mi SSE 12.7 mph - N/A   Mostly Cloudy
4:02 PM 59.0 °F 57.0 °F 93% 29.71 in 10.0 mi South 13.8 mph - N/A   Mostly Cloudy
4:12 PM 59.0 °F 57.9 °F 96% 29.70 in 10.0 mi South 10.4 mph - N/A   Scattered Clouds
4:53 PM 62.1 °F 59.0 °F 90% 29.68 in 10.0 mi South 13.8 mph - N/A   Clear
5:53 PM 62.1 °F 59.0 °F 90% 29.70 in 10.0 mi SSW 6.9 mph - N/A   Partly Cloudy
6:53 PM 63.0 °F 57.9 °F 84% 29.69 in 10.0 mi SW 4.6 mph - N/A   Clear
7:53 PM 62.1 °F 57.9 °F 86% 29.75 in 10.0 mi SW 6.9 mph - N/A   Mostly Cloudy
8:13 PM 62.1 °F 57.9 °F 86% 29.77 in 10.0 mi SW 8.1 mph - N/A   Overcast
8:22 PM 63.0 °F 57.9 °F 84% 29.77 in 10.0 mi SW 8.1 mph - N/A   Overcast
8:53 PM 63.0 °F 57.9 °F 84% 29.76 in 10.0 mi SW 11.5 mph - N/A   Mostly Cloudy
9:33 PM 62.1 °F 57.9 °F 86% 29.76 in 10.0 mi SSW 8.1 mph - N/A   Overcast
9:53 PM 62.1 °F 57.9 °F 86% 29.75 in 10.0 mi SSW 6.9 mph - N/A   Overcast
10:04 PM 61.0 °F 57.0 °F 87% 29.74 in 10.0 mi SSW 5.8 mph - N/A   Mostly Cloudy
11:50 PM 55.4 °F 55.4 °F 100% 29.74 in 10.0 mi SSE 8.1 mph - N/A   Partly Cloudy
11:53 PM 57.0 °F 55.0 °F 93% 29.73 in 10.0 mi SSE 6.9 mph - N/A   Partly Cloudy